Weather History for CYYG - April, 2013

Change the Weather History Date:

Saturday, April 6, 2013

  Actual Average Record
Temperature  
Mean Temperature 32 °F -  
Max Temperature 36 °F 46 °F 53 °F (2005)
Min Temperature 28 °F 31 °F 12 °F (2015)
Degree Days  
Heating Degree Days 33    
Moisture  
Dew Point 27 °F    
Average Humidity 81    
Maximum Humidity 100    
Minimum Humidity 44    
Precipitation  
Precipitation 0.01 in 0.12 in - ()
Sea Level Pressure  
Sea Level Pressure 29.67 in    
Wind  
Wind Speed 10 mph ()    
Max Wind Speed 22 mph    
Max Gust Speed 34 mph    
Visibility 12.0 miles    
Events Rain , Snow    
Averages and records for this station are not official NWS values.
T = Trace of Precipitation, MM = Missing Value Source: Averaged Metar Reports

Daily Weather History Graph

Daily Weather History Graph

Search for Another Location

Airport or City:

Trip Planner

Search our weather history database for the weather conditions in past years. The results will help you decide how hot, cold, wet, or windy it might be!

Date:

Astronomy

Apr. 06, 2013 Rise Set
Actual Time 6:42 AM ADT 7:48 PM ADT
Civil Twilight 6:11 AM ADT 8:19 PM ADT
Nautical Twilight 5:34 AM ADT 8:56 PM ADT
Astronomical Twilight 4:55 AM ADT 9:35 PM ADT
Moon 4:35 AM ADT (4/6) 4:01 PM ADT (4/6)
Length of Visible Light 14h 07m
Length of Day
13h 06m
Waning Crescent, 15% of the Moon is Illuminated
Apr 6
Waning Crescent
Apr 10
New
Apr 18
First Quarter
Apr 25
Full
May 2
Last Quarter

Hourly Weather History & Observations

Time (ADT) Temp. Windchill Dew Point Humidity Pressure Visibility Wind Dir Wind Speed Gust Speed Precip Events Conditions
12:00 AM 37.4 °F 32.1 °F 37.4 °F 100% 29.61 in 10.0 mi South 6.9 mph - N/A Rain Light Rain
12:33 AM 37.4 °F 34.9 °F 37.4 °F 100% 29.59 in 10.0 mi WSW 3.5 mph - N/A Rain Light Rain
12:40 AM 37.4 °F - 37.4 °F 100% 29.58 in 10.0 mi Calm Calm - N/A Rain Light Rain
1:00 AM 37.4 °F 34.9 °F 37.4 °F 100% 29.57 in 10.0 mi South 3.5 mph - N/A Rain Light Rain
1:36 AM 37.4 °F - 37.4 °F 100% 29.53 in 8.0 mi Calm Calm - N/A Rain Light Rain
2:00 AM 35.6 °F 32.8 °F 35.6 °F 100% 29.52 in 10.0 mi SSE 3.5 mph - N/A Rain Light Rain
2:25 AM 35.6 °F - 35.6 °F 100% 29.51 in 12.0 mi Calm Calm - N/A   Overcast
3:00 AM 36 °F - 36 °F 99% 29.50 in 10 mi WNW 4.6 mph - - Rain Light Rain
3:14 AM 35.6 °F 28.0 °F 35.6 °F 100% 29.49 in 15.0 mi NW 10.4 mph - N/A   Overcast
3:27 AM 33.8 °F 25.8 °F 32.0 °F 93% 29.49 in 15.0 mi NW 10.4 mph 21.9 mph N/A Snow Light Snow Showers
4:00 AM 33.8 °F 25.3 °F 32.0 °F 93% 29.48 in 15.0 mi NW 11.5 mph 18.4 mph N/A Snow Light Snow Showers
4:42 AM 33.8 °F 24.8 °F 32.0 °F 93% 29.47 in 15.0 mi NW 12.7 mph - N/A Snow Light Snow Showers
5:00 AM 32.0 °F 22.5 °F 32.0 °F 100% 29.48 in 15.0 mi WNW 12.7 mph 19.6 mph N/A Snow Light Snow Showers
6:00 AM 32.0 °F 22.5 °F 32.0 °F 100% 29.49 in 8.0 mi NW 12.7 mph 23.0 mph N/A Snow Light Snow Showers
7:00 AM 32.0 °F 21.6 °F 32.0 °F 100% 29.51 in 1.0 mi NW 15.0 mph 24.2 mph N/A Snow Light Snow Showers
7:19 AM 32.0 °F 21.2 °F 32.0 °F 100% 29.52 in 3.0 mi NW 16.1 mph 29.9 mph N/A Snow Light Snow Showers
7:42 AM 32.0 °F 20.1 °F 30.2 °F 93% 29.53 in 10.0 mi NW 19.6 mph 29.9 mph N/A Snow Light Snow Showers
8:00 AM 32.0 °F 20.1 °F 30.2 °F 93% 29.53 in 10.0 mi NW 19.6 mph 32.2 mph N/A Snow Light Snow Showers
8:12 AM 32.0 °F 20.5 °F 30.2 °F 93% 29.54 in 1.5 mi NW 18.4 mph 29.9 mph N/A Snow Light Snow Showers
9:00 AM 32 °F - 30 °F 88% 29.57 in 10 mi WNW 17.3 mph - - Snow Light Snow Showers
9:00 AM 32.0 °F 19.5 °F 30.2 °F 93% 29.57 in 10.0 mi WNW 21.9 mph 31.1 mph N/A Snow Light Snow Showers
10:00 AM 32.0 °F 20.5 °F 28.4 °F 87% 29.59 in 15.0 mi WNW 18.4 mph 28.8 mph N/A Snow Light Snow Showers
11:00 AM 32.0 °F 20.1 °F 28.4 °F 87% 29.63 in 3.0 mi WNW 19.6 mph 34.5 mph N/A Snow Light Snow Showers
11:54 AM 30.2 °F 18.5 °F 26.6 °F 86% 29.67 in 15.0 mi WNW 17.3 mph 29.9 mph N/A   Overcast
12:00 PM 30.2 °F 18.5 °F 24.8 °F 80% 29.67 in 15.0 mi NW 17.3 mph 26.5 mph N/A   Overcast
1:00 PM 32.0 °F 20.1 °F 23.0 °F 69% 29.71 in 15.0 mi WNW 19.6 mph 31.1 mph N/A   Overcast
1:45 PM 33.8 °F 23.2 °F 24.8 °F 70% 29.73 in 15.0 mi WNW 17.3 mph 25.3 mph N/A Snow Light Snow Showers
2:00 PM 35.6 °F 25.5 °F 23.0 °F 60% 29.74 in 15.0 mi WNW 17.3 mph 31.1 mph N/A Snow Light Snow Showers
2:44 PM 33.8 °F 22.5 °F 21.2 °F 60% 29.77 in 15.0 mi WNW 19.6 mph 28.8 mph N/A   Scattered Clouds
3:00 PM 35 °F - 21 °F 44% 29.77 in 15 mi WNW 20.7 mph - - Snow Light Snow Showers
3:00 PM 35.6 °F 24.5 °F 21.2 °F 56% 29.77 in 15.0 mi WNW 20.7 mph 31.1 mph N/A   Scattered Clouds
4:00 PM 35.6 °F 24.2 °F 19.4 °F 52% 29.81 in 15.0 mi WNW 21.9 mph 27.6 mph N/A   Scattered Clouds
5:00 PM 33.8 °F 23.2 °F 17.6 °F 52% 29.85 in 15.0 mi NW 17.3 mph 27.6 mph N/A   Partly Cloudy
6:00 PM 33.8 °F 23.9 °F 17.6 °F 52% 29.90 in 15.0 mi NW 15.0 mph 24.2 mph N/A   Partly Cloudy
7:00 PM 32.0 °F 20.8 °F 17.6 °F 55% 29.95 in 15.0 mi NW 17.3 mph 23.0 mph N/A   Partly Cloudy
8:00 PM 28.4 °F 18.0 °F 15.8 °F 59% 30.00 in 15.0 mi NW 12.7 mph 23.0 mph N/A   Partly Cloudy
9:00 PM 29 °F - 16 °F 45% 30.06 in 15 mi WNW 11.5 mph - -   Scattered Clouds
9:00 PM 28.4 °F 18.0 °F 15.8 °F 59% 30.05 in 15.0 mi WNW 12.7 mph 18.4 mph N/A   Partly Cloudy
10:00 PM 28.4 °F 21.2 °F 15.8 °F 59% 30.09 in 15.0 mi West 6.9 mph - N/A   Partly Cloudy
11:00 PM 28.4 °F 19.1 °F 14.0 °F 55% 30.13 in 15.0 mi WNW 10.4 mph 18.4 mph N/A   Clear